�������l�o���
Date,Time,MP-1(��Sv/h),MP-2(��Sv/h),MP-3(��Sv/h),MP-4(��Sv/h),MP-5(��Sv/h),MP-6(��Sv/h),MP-7(��Sv/h),MP-8(��Sv/h),����,����(m/s),���J
2018/01/17,00:00,0.898,1.491,0.939,1.768,1.194,0.493,0.880,0.843,�k�k��,1.2,��
2018/01/17,00:10,0.899,1.491,0.937,1.769,1.196,0.491,0.881,0.843,�k�k��,1.4,��
2018/01/17,00:20,0.899,1.494,0.938,1.772,1.196,0.492,0.882,0.843,�k,1.4,��
2018/01/17,00:30,0.901,1.492,0.938,1.769,1.196,0.493,0.881,0.843,�k��,1.2,��
2018/01/17,00:40,0.899,1.494,0.938,1.769,1.195,0.493,0.880,0.844,���쓌,1.5,��
2018/01/17,00:50,0.898,1.492,0.938,1.769,1.195,0.494,0.880,0.844,��쓌,1.2,��
2018/01/17,01:00,0.898,1.490,0.939,1.771,1.196,0.492,0.880,0.843,�쓌,1.5,��
2018/01/17,01:10,0.897,1.494,0.937,1.770,1.196,0.493,0.882,0.845,��쓌,3.2,��
2018/01/17,01:20,0.898,1.493,0.937,1.768,1.196,0.493,0.878,0.843,��쓌,3.7,��
2018/01/17,01:30,0.898,1.492,0.937,1.766,1.196,0.492,0.882,0.841,��쓌,5.0,��
2018/01/17,01:40,0.896,1.494,0.937,1.770,1.197,0.491,0.881,0.843,��,5.6,��
2018/01/17,01:50,0.899,1.494,0.938,1.771,1.196,0.495,0.879,0.842,��,7.2,��
2018/01/17,02:00,0.899,1.493,0.939,1.769,1.197,0.493,0.882,0.844,��,6.9,��
2018/01/17,02:10,0.899,1.493,0.939,1.767,1.196,0.493,0.882,0.847,��,6.0,��
2018/01/17,02:20,0.899,1.495,0.938,1.767,1.197,0.493,0.882,0.843,��,4.6,��
2018/01/17,02:30,0.899,1.494,0.939,1.770,1.198,0.492,0.880,0.845,��,4.0,��
2018/01/17,02:40,0.899,1.494,0.940,1.772,1.196,0.494,0.880,0.843,��,3.6,��
2018/01/17,02:50,0.899,1.495,0.938,1.770,1.194,0.494,0.880,0.845,��쐼,2.9,��
2018/01/17,03:00,0.898,1.490,0.938,1.769,1.195,0.493,0.880,0.845,�쐼,1.5,��
2018/01/17,03:10,0.899,1.492,0.937,1.769,1.194,0.494,0.880,0.842,���쐼,1.5,��
2018/01/17,03:20,0.897,1.493,0.938,1.769,1.197,0.492,0.880,0.843,���쐼,0.9,��
2018/01/17,03:30,0.899,1.492,0.939,1.772,1.195,0.493,0.880,0.842,���쐼,1.2,��
2018/01/17,03:40,0.896,1.492,0.939,1.769,1.197,0.492,0.880,0.843,���쐼,3.0,��
2018/01/17,03:50,0.897,1.493,0.938,1.767,1.196,0.493,0.878,0.844,��,3.5,��
2018/01/17,04:00,0.898,1.493,0.938,1.768,1.197,0.494,0.879,0.846,���k��,2.3,��
2018/01/17,04:10,0.899,1.489,0.939,1.770,1.197,0.493,0.881,0.842,���k��,2.6,��
2018/01/17,04:20,0.898,1.490,0.938,1.769,1.198,0.492,0.879,0.844,�k�k��,2.6,��
2018/01/17,04:30,0.899,1.489,0.940,1.767,1.196,0.491,0.879,0.844,�k��,2.2,��
2018/01/17,04:40,0.895,1.490,0.939,1.770,1.196,0.492,0.881,0.844,�k��,2.3,��
2018/01/17,04:50,0.899,1.490,0.938,1.769,1.196,0.495,0.881,0.843,�k��,4.3,��
2018/01/17,05:00,0.898,1.494,0.939,1.769,1.195,0.491,0.881,0.845,�k�k��,5.0,��
2018/01/17,05:10,0.897,1.491,0.940,1.770,1.196,0.493,0.880,0.844,�k�k��,4.0,��
2018/01/17,05:20,0.897,1.493,0.940,1.770,1.196,0.491,0.880,0.844,�k��,6.3,��
2018/01/17,05:30,0.898,1.494,0.938,1.769,1.197,0.493,0.880,0.845,���k��,7.0,��
2018/01/17,05:40,0.899,1.494,0.938,1.768,1.194,0.492,0.880,0.844,�k��,5.0,��
2018/01/17,05:50,0.899,1.493,0.939,1.769,1.198,0.493,0.879,0.844,�k��,2.3,��
2018/01/17,06:00,0.899,1.492,0.938,1.766,1.196,0.492,0.881,0.842,�k�k��,1.7,��
2018/01/17,06:10,0.900,1.496,0.940,1.766,1.195,0.492,0.882,0.844,�k,1.9,��
2018/01/17,06:20,0.898,1.494,0.937,1.769,1.196,0.491,0.879,0.846,�k�k��,2.6,��
2018/01/17,06:30,0.898,1.492,0.939,1.771,1.193,0.493,0.881,0.842,�k��,3.0,��
2018/01/17,06:40,0.899,1.495,0.939,1.769,1.193,0.492,0.880,0.843,���k��,2.6,��
2018/01/17,06:50,0.898,1.492,0.938,1.769,1.196,0.493,0.880,0.844,��,3.6,��
2018/01/17,07:00,0.898,1.492,0.937,1.772,1.196,0.491,0.880,0.842,��,4.0,��
2018/01/17,07:10,0.896,1.493,0.938,1.768,1.195,0.492,0.880,0.843,��,4.2,��
2018/01/17,07:20,0.898,1.493,0.939,1.771,1.194,0.491,0.880,0.842,��,4.0,��
2018/01/17,07:30,0.897,1.495,0.938,1.772,1.197,0.492,0.878,0.843,���k��,3.7,��
2018/01/17,07:40,0.897,1.494,0.937,1.770,1.194,0.492,0.881,0.843,���k��,4.1,��
2018/01/17,07:50,0.901,1.490,0.937,1.769,1.196,0.491,0.879,0.843,���k��,4.3,��
2018/01/17,08:00,0.898,1.493,0.938,1.770,1.195,0.489,0.880,0.843,�k��,4.8,��
2018/01/17,08:10,0.899,1.494,0.939,1.771,1.195,0.492,0.881,0.843,�k��,5.0,��
2018/01/17,08:20,0.900,1.494,0.937,1.771,1.194,0.491,0.878,0.844,�k��,5.4,��
2018/01/17,08:30,0.897,1.491,0.937,1.769,1.195,0.491,0.880,0.844,�k��,5.3,��
2018/01/17,08:40,0.898,1.489,0.937,1.771,1.197,0.491,0.881,0.844,�k��,5.3,��
2018/01/17,08:50,0.898,1.492,0.935,1.770,1.195,0.491,0.882,0.844,�k��,5.0,��
2018/01/17,09:00,0.898,1.487,0.937,1.769,1.197,0.492,0.881,0.845,�k��,4.5,��
2018/01/17,09:10,0.898,1.488,0.936,1.769,1.194,0.491,0.879,0.844,�k��,4.0,��
2018/01/17,09:20,0.898,1.492,0.937,1.770,1.198,0.493,0.877,0.846,�k��,3.0,��
2018/01/17,09:30,0.898,1.489,0.939,1.771,1.197,0.492,0.882,0.845,�k�k��,3.6,��
2018/01/17,09:40,0.899,1.484,0.938,1.773,1.195,0.494,0.878,0.843,�k�k��,3.5,�L
2018/01/17,09:50,0.899,1.489,0.939,1.770,1.196,0.492,0.879,0.844,�k�k��,2.8,�L
2018/01/17,10:00,0.897,1.490,0.939,1.773,1.196,0.493,0.880,0.844,�k,2.9,�L
2018/01/17,10:10,0.900,1.490,0.939,1.771,1.197,0.492,0.880,0.844,�k,2.5,�L
2018/01/17,10:20,0.900,1.489,0.940,1.768,1.196,0.493,0.879,0.844,�k,2.3,�L
2018/01/17,10:30,0.899,1.486,0.938,1.771,1.195,0.492,0.879,0.845,�k,2.8,�L
2018/01/17,10:40,0.898,1.485,0.939,1.774,1.197,0.492,0.882,0.843,�k�k��,3.9,�L
2018/01/17,10:50,0.898,1.488,-,1.767,1.198,0.493,0.879,0.844,�k�k��,4.1,�L
2018/01/17,11:00,0.898,1.488,-,1.770,1.196,0.493,0.877,0.843,�k�k��,3.7,�L
2018/01/17,11:10,0.899,1.485,-,1.770,1.195,0.494,0.877,0.844,�k�k��,3.2,�L
2018/01/17,11:20,0.898,1.490,-,1.768,1.194,0.493,0.879,0.843,�k�k��,2.6,�L
2018/01/17,11:30,0.896,1.486,-,1.770,1.193,0.493,0.875,0.844,�k�k��,2.6,�L
2018/01/17,11:40,0.894,1.486,-,1.769,1.192,0.492,0.875,0.842,�k�k��,2.5,�L
2018/01/17,11:50,0.898,1.486,-,1.768,1.192,0.493,0.875,0.843,�k�k��,2.9,�L
2018/01/17,12:00,0.896,1.485,-,1.768,1.190,0.492,0.877,0.844,�k�k��,3.3,�L
2018/01/17,12:10,0.893,1.486,-,1.766,1.190,0.493,0.879,0.843,�k�k��,3.1,�L
2018/01/17,12:20,0.891,1.486,-,1.764,1.187,0.494,0.877,0.842,�k�k��,2.8,�L
2018/01/17,12:30,0.893,1.483,-,1.764,1.186,0.494,0.877,0.843,�k�k��,3.2,�L
2018/01/17,12:40,0.891,1.477,-,1.764,1.185,0.494,0.874,0.842,�k,3.1,�L
2018/01/17,12:50,0.893,1.476,-,1.763,1.185,0.494,0.875,0.842,�k,4.2,�L
2018/01/17,13:00,0.890,1.477,-,1.762,1.185,0.493,0.876,0.841,�k�k��,4.8,�L
2018/01/17,13:10,0.890,1.475,-,1.761,1.184,0.493,0.875,0.842,�k�k��,4.9,�L
2018/01/17,13:20,0.889,1.475,-,1.757,1.181,0.493,0.875,0.841,�k�k��,5.6,�L
2018/01/17,13:30,0.890,1.470,-,1.762,1.181,0.492,0.875,0.840,�k�k��,6.5,�L
2018/01/17,13:40,0.889,1.470,-,1.756,1.178,0.493,0.873,0.840,�k�k��,6.4,�L
2018/01/17,13:50,0.888,1.467,-,1.752,1.177,0.493,0.874,0.838,�k�k��,6.6,�L
2018/01/17,14:00,0.890,1.460,-,1.751,1.177,0.494,0.874,0.840,�k�k��,5.9,�L
2018/01/17,14:10,0.886,1.455,-,1.746,1.173,0.494,0.873,0.840,�k�k��,5.2,�L
2018/01/17,14:20,0.885,1.454,-,1.742,1.170,0.493,0.871,0.837,�k�k��,3.7,�L
2018/01/17,14:30,0.883,1.450,-,1.742,1.171,0.494,0.872,0.839,�k,3.6,�L
2018/01/17,14:40,0.881,1.445,-,1.736,1.167,0.493,0.870,0.837,�k,2.0,�L
2018/01/17,14:50,0.877,1.439,-,1.727,1.159,0.493,0.869,0.835,�k,5.1,�L
2018/01/17,15:00,0.875,1.437,-,1.722,1.154,0.492,0.868,0.833,�k,5.0,�L
2018/01/17,15:10,0.875,1.434,-,1.717,1.153,0.492,0.867,0.834,�k,4.9,�L
2018/01/17,15:20,0.874,1.429,-,1.710,1.153,0.492,0.868,0.834,�k,4.6,�L
2018/01/17,15:30,0.874,1.432,-,1.707,1.151,0.493,0.868,0.832,�k,4.8,�L
2018/01/17,15:40,0.871,1.430,0.913,1.705,1.148,0.494,0.866,0.831,�k,4.0,�L
2018/01/17,15:50,0.871,1.427,0.911,1.703,1.148,0.492,0.865,0.832,�k,4.3,�L
2018/01/17,16:00,0.870,1.424,0.910,1.698,1.146,0.493,0.864,0.831,�k,4.3,�L
2018/01/17,16:10,0.868,1.418,0.908,1.698,1.144,0.493,0.864,0.830,�k,4.9,�L
2018/01/17,16:20,0.865,1.422,0.909,1.694,1.145,0.492,0.863,0.829,�k�k��,5.0,�L
2018/01/17,16:30,0.864,1.420,0.907,1.691,1.141,0.491,0.862,0.831,�k��,3.9,�L
2018/01/17,16:40,0.861,1.421,0.907,1.691,1.141,0.490,0.864,0.827,�k��,4.1,�L
2018/01/17,16:50,0.866,1.415,0.904,1.690,1.139,0.488,0.862,0.828,�k��,4.6,�L
2018/01/17,17:00,0.861,1.412,0.901,1.684,1.137,0.488,0.860,0.828,�k�k��,5.2,�L
2018/01/17,17:10,0.857,1.411,0.900,1.684,1.133,0.488,0.859,0.826,�k�k��,6.0,�L
2018/01/17,17:20,0.858,1.407,0.900,1.683,1.133,0.486,0.860,0.828,�k�k��,8.0,�L
2018/01/17,17:30,0.855,1.403,0.898,1.681,1.134,0.487,0.859,0.828,�k�k��,8.4,�L
2018/01/17,17:40,0.856,1.403,0.899,1.676,1.126,0.485,0.858,0.826,�k�k��,7.3,�L
2018/01/17,17:50,0.855,1.400,0.894,1.673,1.126,0.486,0.857,0.824,�k�k��,6.9,�L
2018/01/17,18:00,0.852,1.395,0.891,1.668,1.123,0.485,0.855,0.823,�k�k��,7.0,�L
2018/01/17,18:10,0.854,1.395,0.890,1.669,1.120,0.485,0.857,0.823,�k,6.0,�L
2018/01/17,18:20,0.852,1.394,0.893,1.663,1.117,0.486,0.856,0.824,�k�k��,6.3,�L
2018/01/17,18:30,0.853,1.390,0.890,1.663,1.113,0.484,0.854,0.822,�k�k��,7.2,�L
2018/01/17,18:40,0.851,1.387,0.889,1.662,1.108,0.486,0.854,0.822,�k,5.9,�L
2018/01/17,18:50,0.853,1.390,0.890,1.665,1.109,0.485,0.853,0.820,�k��,9.3,�L
2018/01/17,19:00,0.857,1.396,0.893,1.669,1.114,0.485,0.855,0.822,�k�k��,8.6,�L
2018/01/17,19:10,0.856,1.398,0.895,1.668,1.110,0.488,0.856,0.822,�k�k��,9.1,�L
2018/01/17,19:20,0.856,1.394,0.894,1.670,1.113,0.487,0.855,0.823,�k��,9.3,�L
2018/01/17,19:30,0.857,1.397,0.893,1.673,1.114,0.486,0.856,0.822,�k�k��,9.1,�L
2018/01/17,19:40,0.854,1.400,0.892,1.674,1.116,0.486,0.857,0.825,�k�k��,9.4,�L
2018/01/17,19:50,0.856,1.402,0.893,1.672,1.115,0.485,0.856,0.822,�k�k��,10.2,�L
2018/01/17,20:00,0.856,1.399,0.893,1.669,1.114,0.485,0.857,0.823,�k�k��,9.4,�L
2018/01/17,20:10,0.854,1.396,0.891,1.666,1.113,0.488,0.853,0.822,�k�k��,9.6,�L
2018/01/17,20:20,0.854,1.394,0.891,1.666,1.110,0.486,0.853,0.821,�k�k��,10.2,�L
2018/01/17,20:30,0.853,1.396,0.892,1.664,1.111,0.486,0.854,0.822,�k�k��,10.9,�L
2018/01/17,20:40,0.853,1.398,0.890,1.669,1.112,0.485,0.853,0.821,�k,10.9,�L
2018/01/17,20:50,0.856,1.397,0.891,1.668,1.112,0.484,0.854,0.822,�k,11.0,�L
2018/01/17,21:00,0.855,1.401,0.890,1.670,1.114,0.483,0.855,0.823,�k,11.1,�L
2018/01/17,21:10,0.854,1.400,0.889,1.670,1.113,0.484,0.853,0.822,�k,11.1,�L
2018/01/17,21:20,0.857,1.399,0.890,1.666,1.112,0.484,0.851,0.823,�k,10.9,�L
2018/01/17,21:30,0.855,1.397,0.891,1.667,1.115,0.486,0.855,0.822,�k,11.1,�L
2018/01/17,21:40,0.854,1.395,0.889,1.664,1.113,0.485,0.854,0.821,�k�k��,9.0,�L
2018/01/17,21:50,0.855,1.393,0.889,1.662,1.112,0.484,0.855,0.825,�k,9.9,�L
2018/01/17,22:00,0.854,1.396,0.888,1.663,1.113,0.486,0.854,0.821,�k,10.5,�L
2018/01/17,22:10,0.854,1.397,0.888,1.661,1.112,0.484,0.853,0.822,�k,10.2,�L
2018/01/17,22:20,0.855,1.395,0.890,1.662,1.111,0.485,0.851,0.821,�k�k��,10.9,�L
2018/01/17,22:30,0.857,1.395,0.886,1.661,1.112,0.484,0.853,0.823,�k�k��,10.8,�L
2018/01/17,22:40,0.854,1.396,0.887,1.661,1.113,0.483,0.852,0.822,�k�k��,11.3,�L
2018/01/17,22:50,0.855,1.398,0.886,1.664,1.111,0.482,0.852,0.822,�k,11.9,�L
2018/01/17,23:00,0.854,1.399,0.885,1.664,1.111,0.484,0.854,0.823,�k�k��,11.9,�L
2018/01/17,23:10,0.856,1.398,0.884,1.665,1.112,0.483,0.854,0.823,�k�k��,10.5,�L
2018/01/17,23:20,0.854,1.396,0.886,1.664,1.113,0.483,0.852,0.825,�k�k��,13.9,�L
2018/01/17,23:30,0.852,1.398,0.886,1.664,1.113,0.482,0.854,0.822,�k�k��,12.7,�L
2018/01/17,23:40,0.851,1.400,0.884,1.665,1.112,0.481,0.853,0.822,�k�k��,11.4,�L
2018/01/17,23:50,0.849,1.392,0.884,1.657,1.107,0.482,0.852,0.822,�k�k��,9.8,�L
